www.pogodaiklimat.ru

Погода и климат >> Архив погоды >> Канада >> Квебек >> Лак Эон


ПОГОДА на Лак Эон

  • Прогноз погоды на Лак Эон
  • Монитор погоды на Лак Эон

АРХИВ ПОГОДЫ на Лак Эон

Время (UTC), дата Ветер
(напр.,м/с)
 
Видим.   Явления Облачность Т
(С)
Тd
(С)
f
(%)
Тe
(С)
Тes
(С)
Комфортность P
(гПа)
Po
(гПа)
Тmin
(С)
Tmax
(С)
R
(мм)
R24
(мм)
S
(см)
06 9.01 ЮВ 2 н/о н/о -12.5 -16.0 75 -17 -17 1022.2 948.0 -28.2 -11.6
09 9.01 Ю 4 н/о н/о -13.3 -16.1 79 -20 -20 1021.7 947.5
12 9.01 Ю 3 н/о н/о -13.5 -16.4 79 -20 -20 1022.1 948.1 -13.6 -11.6
15 9.01 В 2 н/о н/о -12.5 -15.5 78 -16 -16 1020.8 947.0
18 9.01 В 2 н/о н/о -10.1 -15.9 62 -15 -15 1017.7 944.3 -16.0 -10.1
21 9.01 В 3 н/о н/о -10.5 -16.0 64 -16 -16 1016.4 943.0
00 10.01 СВ 3 н/о н/о -12.1 -17.3 65 -18 -18 1013.8 940.5 -13.6 -9.9
03 10.01 СВ 4 н/о н/о -12.5 -19.0 58 -20 -20 1009.6 936.6
06 10.01 СВ 5 н/о н/о -11.7 -19.6 52 -19 -19 1005.4 933.0 -13.6 -9.9 6
09 10.01 СВ 6 н/о н/о -13.8 -16.4 81 -23 -23 1003.8 931.3
12 10.01 СВ 5 н/о {осадки} н/о -13.6 -16.4 79 -22 -22 1003.1 930.5 -13.9 -9.9 0.2
15 10.01 СВ 5 н/о н/о -12.2 -14.9 80 -20 -20 1001.3 928.9
18 10.01 СВ 5 н/о {осадки} н/о -9.4 -11.8 83 -17 -17 998.8 926.9 -13.9 -9.4 0.2
21 10.01 СВ 6 н/о н/о -9.1 -11.3 84 -17 -17 998.8 926.8 0.2
00 11.01 СВ 5 н/о н/о -8.7 -10.8 85 -16 -16 999.0 927.0 -13.9 -8.7 0.5
06 11.01 СВ 4 н/о н/о -7.3 -9.0 88 -14 -14 998.2 926.7 10
09 11.01 СВ 3 н/о {осадки} н/о -7.1 -8.6 89 -12 -12 998.3 926.8 0.2
12 11.01 СВ 2 н/о {осадки} н/о -6.3 -7.6 90 -11 -11 999.6 928.1 0.5
15 11.01 СВ 2 н/о н/о -5.5 -6.9 90 -10 -10 999.6 928.3 0.2
18 11.01 С 2 н/о {осадки} н/о -5.1 -7.0 86 -9 -9 999.1 927.9 -4.6 0.5
21 11.01 С 2 н/о н/о -5.6 -6.9 91 -9 -9 1000.8 929.4
00 12.01 н/о н/о -7.4 -8.4 93 1001.7 930.2
03 12.01 СЗ 2 н/о н/о -6.7 -8.0 90 -10 -10 1002.6 931.1
06 12.01 С 2 н/о н/о -6.6 -7.9 90 -10 -10 1004.0 932.5 0.2
09 12.01 С 3 н/о н/о -6.9 -8.3 90 -13 -13 1005.9 934.2
12 12.01 С 4 н/о н/о -8.0 -9.6 88 -14 -14 1008.4 936.3
15 12.01 СЗ 4 н/о н/о -9.3 -11.5 84 -16 -16 1011.0 938.6
18 12.01 СЗ 4 н/о н/о -9.6 -11.8 84 -16 -16 1011.9 939.5
21 12.01 СЗ 5 н/о н/о -13.2 -15.6 82 -21 -21 1014.8 941.8
00 13.01 СЗ 5 н/о н/о -15.4 -18.2 79 -24 -24 1017.3 943.9 -8.0
06 13.01 СЗ 5 н/о н/о -16.6 -19.4 79 -25 -25 1019.6 945.8 23
09 13.01 СЗ 6 н/о н/о -18.1 -21.1 77 -28 -28 1021.7 947.3
12 13.01 СЗ 5 н/о н/о -19.1 -21.9 78 -29 -29 1023.1 948.3
15 13.01 СЗ 6 н/о н/о -18.5 -21.7 76 -29 -29 1023.8 949.0
18 13.01 СЗ 5 н/о {осадки} н/о -16.9 -21.1 70 -26 -26 1023.1 948.4 -16.5 0.3
21 13.01 СЗ 3 н/о н/о -18.1 -21.1 77 -25 -25 1024.0 949.0
00 14.01 СЗ 4 н/о н/о -16.9 -19.5 80 -25 -25 1024.2 949.2 -19.3 -16.5
03 14.01 СЗ 4 н/о н/о -15.9 -18.4 81 -23 -23 1023.1 948.3
06 14.01 З 3 н/о н/о -16.4 -18.9 81 -23 -23 1021.6 947.0 -19.3 -15.6 10
09 14.01 ЮЗ 2 н/о н/о -17.9 -20.7 79 -23 -23 1020.3 945.6
12 14.01 ЮЗ 3 н/о н/о -16.0 -19.1 77 -22 -22 1017.7 943.5 -19.2 -15.6
15 14.01 ЮЗ 4 н/о н/о -13.4 -16.5 77 -21 -21 1016.0 942.2
18 14.01 ЮЗ 3 н/о {осадки} н/о -11.4 -15.0 75 -17 -17 1013.6 940.1 -19.2 -11.3 0.2
21 14.01 ЮЗ 4 н/о н/о -12.4 -15.3 79 -19 -19 1014.2 940.4
00 15.01 ЮЗ 3 н/о н/о -13.0 -16.0 78 -19 -19 1014.1 940.5 -19.2 -11.3
03 15.01 ЮЗ 1 н/о н/о -13.7 -16.8 77 -16 -16 1013.7 940.2
06 15.01 ЮЗ 1 н/о н/о -17.2 -19.2 84 -18 -18 1013.7 940.1 -19.2 -11.3
09 15.01 З 1 н/о н/о -18.2 -20.6 81 -19 -19 1013.6 939.9
12 15.01 СЗ 2 н/о н/о -19.4 -22.0 80 -25 -25 1014.5 940.5 -20.0 -11.3
15 15.01 СЗ 3 н/о н/о -15.9 -20.0 71 -22 -22 1015.0 941.2
18 15.01 С 4 н/о н/о -16.6 -21.6 65 -25 -25 1014.8 940.7 -20.0 -15.4
21 15.01 СЗ 3 н/о н/о -20.1 -24.4 68 -27 -27 1016.3 941.7
00 16.01 З 2 н/о н/о -23.8 -26.7 77 -29 -29 1017.6 942.5 -24.3 -15.4

 

Местоположение метеостанции Лак Эон (Квебек, Канада): широта 51.87 долгота -63.26 высота над уровнем моря 589 м.

В архиве по умолчанию представлена погода на Лак Эон за последнюю неделю. Архивные данные за месяц целиком и за предыдущие месяцы, начиная с января 2011 года, Вы можете получить, выбрав интересующий диапазон дат из раскрывающегося списка и нажав кнопку "Ввод!".


*Определитесь, кто Вы:
робот инопланетянин человек

Внимание! Время в таблицах - всемирное. Для получения местного времени необходимо прибавить поправку, которая равна -4 ч.

Смотрите также архив погоды в соседних городах и на ближайших метеорологических станциях:

Погода в Лонг Пойнт де Минган (Квебек, Канада) (190 км)
Погода на Острове Перрокетов (Квебек, Канада) (195 км)
Погода в Рекхаусе (Ньюфаундленд и Лабрадор, Канада) (197 км)
Погода в Наташкане (Квебек, Канада) (214 км)
Погода в Пор-Менье (Квебек, Канада) (238 км)
Погода в Аэропорту Гуз-Бэй (Ньюфаундленд и Лабрадор, Канада) (251 км)
Погода в Вабуше (Ньюфаундленд и Лабрадор, Канада) (271 км)
Погода в Сет-Иле (Квебек, Канада) (278 км)
Погода в Пуант-Нуаре (Квебек, Канада) (293 км)
Погода на Кейп Уиттл (Квебек, Канада) (295 км)

Пояснения к столбцам:

Ветер - указаны скорость ветра в м/с - средняя за 10 мин, порывы в срок и между сроками (в фигурных скобках) и направление, откуда дует ветер: С - северный, СВ - северо-восточный, В - восточный, ЮВ - юго-восточный, Ю - южный, ЮЗ - юго-западный, З - западный, СЗ - северо-западный.
Видимость - горизонтальная дальность видимости в метрах или километрах. При видимости от 1 до 10 км при отсутствии осадков обычно наблюдается дымка, при ухудшении видимости до 1 км и менее - туман. В сухую погоду видимость может ухудшаться дымом, пылью или мглою.
Явления - указаны атмосферные явления, наблюдавшиеся в срок или в последний час перед сроком; фигурными скобками обозначены явления, наблюдавшиеся между сроками (за 1-3 часа до срока); квадратными скобками обозначены град или гололедные отложения с указанием их диаметра в мм.
Облачность - указаны через наклонную черту общая и нижняя облачность в баллах и высота нижней границы облаков в метрах; квадратными скобками обозначены формы облаков: Ci - перистые, Cs - перисто-слоистые, Cc - перисто-кучевые, Ac - высококучевые, As - высокослоистые, Sc - слоисто-кучевые, Ns - слоисто-дождевые, Cu - кучевые, Cb - кучево-дождевые. Подробнее классификацию облаков см. в Атласе облаков (PDF).
T - Температура воздуха - температура, измеренная на высоте 2 м над землей.
Td - Температура точки росы - температура, при понижении до которой содержащийся в воздухе водяной пар достигнет насыщения.
f - Относительная влажность воздуха - влажноcть воздуха, измеренная на высоте 2 м над землей.
Te - Эффективная температура - температура, которую ощущает одетый по сезону человек в тени. Характеристика душности погоды. При расчете учитывается влияние влажности воздуха и скорости ветра на теплоощущения человека.
Tes - Эффективная температура на солнце - температура, которую ощущает человек, с поправкой на солнечный нагрев. Характеристика знойности погоды. Зависит от высоты солнца над горизонтом, облачности и скорости ветра. Ночью, в пасмурную погоду, а также при ветре 12 м/с и более поправка равна нулю.
P - Атмосферное давление - приведенное к уровню моря атмосферное давление.
Po - Атмосферное давление - измеренное на уровне метеостанции атмосферное давление.
Tmin - Минимальная температура - минимум температуры воздуха на высоте 2 м над землей.
Tmax - Максимальная температура - максимум температуры воздуха на высоте 2 м над землей.
R - Количество осадков - Количество выпавших осадков за период времени, мм. При наведении курсора мыши на число - период времени, за который выпало указанное количество осадков.
R24 - Количество осадков - Количество выпавших осадков за 24 часа, мм.
S - Снежный покров - Высота снежного покрова, см. При наведении курсора мыши на число - состояние снежного покрова и степень покрытия местности в баллах.